星链-4621 (STARLINK-4621 )

导读

STARLINK-4621是美国SpaceX公司星链星座的成员卫星,于2022年8月31日发射入轨。作为星链低轨互联网星座的一部分,它运行在近地轨道,服务于全球高速卫星互联网组网,重点为偏远无基础设施区域提供宽带接入,也可支持军事及应急通信场景。它的入轨进一步扩充了星链星座的覆盖能力与服务容量,助力SpaceX实现全球联网的目标,不过星链大规模部署也引发了太空拥堵等争议。

Basic Information
目录编号:
53676
目录名称:
STARLINK-4621
国际标识:
2022-105AE
轨道中心:
EARTH
卫星名称:
星链-4621
卫星全名:
星链-4621 (STARLINK-4621 )
卫星状态:
在轨 (已飞行1382 天)
发射日期:
2022-08-31 UTC
国别 :
美国 (US)
星等 :
--
Orbit Information
数据来源 国际轨道数据 AOE轨道数据
星历时间 2026-06-13T22:13:05+0800
7小时前
查看轨道信息
2026-06-13T01:00:00+0800
1天前
查看轨道信息
半长轴 6927.606km 6927.624km
偏心率 0.0002305 0.0002091
轨道倾角 97.365° 97.371°
近地点辐角 78.273° 88.064°
升交点赤经 43.796° 42.951°
平近点角 281.875° 163.025°
近地点 547.872km 548.038km
远地点 551.066km 550.936km
周期 95.639分钟 95.639分钟
每日圈数 15.056638 15.056582
Detailed Information
固有亮度:
5
最大亮度:
2.5
卫星平台:
Starlink v1.5
覆盖范围:
全球
运营商:
太空探索技术公司
运营商所在国:
美国
制造商(研发单位):
太空探索技术公司
制造商所在国:
美国
使用方式:
暂无
Satellite Introduction
星链(Starlink)计划是由太空探索技术公司(SpaceX)提出的一个巨型低轨卫星互联网星座项目,计划在2019年至2024年间在太空搭建由约1.2万颗卫星组成的“星链”网络,其中1584颗将部署在地球上空550千米处的近地轨道,并从2020年开始工作。该卫星仍在工作。
2D Orbit Map
3D Orbit Map
Orbit Altitude Analysis Chart
Orbit Inclination Analysis Chart
Orbit Comprehensive Analysis Chart
View Comprehensive Chart